Home   Weather   Paris   Past weeks
Flag for USA

Past Weather in Paris, Pennsylvania, USA — Yesterday and Last 2 Weeks

Now
45 °F

Overcast.


Feels Like: 44 °F
Forecast: 46 / 40 °F
Wind: 3 mph from Southeast

Location: Allegheny County Airport

Current Time: Feb 25, 2020 at 2:30:39 am

Latest Report: Feb 25, 2020 at 1:53 am


Visibility: 10 mi

Pressure: 29.80 "Hg

Humidity: 63%

Dew Point: 33 °F

Location of ParisLocation

Past Weather in Paris — Graph

°F

Paris Temperature Yesterday

Maximum temperature yesterday: 54 °F (at 1:53 pm)
Minimum temperature yesterday: 36 °F (at 6:53 am)
Average temperature yesterday: 46 °F

High & Low Weather Summary for the Past Weeks

 TemperatureHumidityPressure
High54 °F (Feb 24, 1:53 pm)100% (Feb 10, 8:43 am)30.63 "Hg (Feb 10, 8:43 am)
Low11 °F (Feb 15, 5:53 am)21% (Feb 23, 1:53 pm)29.56 "Hg (Feb 13, 1:31 am)
Average34 °F70%30.15 "Hg
* Reported Feb 10 12:53 am — Feb 25 12:53 am, Paris. Weather by CustomWeather, © 2020

Note: Actual official high and low records may vary slightly from our data, if they occured in-between our weather recording intervals... More about our weather records

Paris Weather History for the Previous 24 Hours

Scroll right to see more
 ConditionsComfort  
Time TempWeatherWind HumidityBarometerVisibility
12:53 am
Tue, Feb 25
45 °FLight rain. Overcast.5 mph63%29.81 "Hg10 mi
11:53 pm
Mon, Feb 24
48 °FMostly cloudy.3 mph44%29.82 "Hg10 mi
10:53 pm49 °FOvercast.No wind43%29.82 "Hg10 mi
9:53 pm48 °FOvercast.No wind44%29.84 "Hg10 mi
8:53 pm50 °FOvercast.3 mph41%29.87 "Hg10 mi
7:53 pm50 °FOvercast.No wind41%29.89 "Hg10 mi
6:53 pm51 °FOvercast.3 mph39%29.91 "Hg10 mi
5:53 pm51 °FMostly cloudy.3 mph39%29.88 "Hg10 mi
4:53 pm52 °FPartly sunny.No wind38%29.88 "Hg10 mi
3:53 pm53 °FPartly sunny.6 mph38%29.93 "Hg10 mi
2:53 pm53 °FSunny.3 mph37%29.87 "Hg10 mi
1:53 pm54 °FSunny.7 mph37%29.93 "Hg10 mi
12:53 pm53 °FPartly sunny.8 mph39%29.98 "Hg10 mi
11:53 am50 °FPassing clouds.12 mph43%30.01 "Hg10 mi
10:53 am50 °FPartly sunny.6 mph39%30.01 "Hg10 mi
9:53 am47 °FSunny.8 mph41%30.03 "Hg10 mi
8:53 am40 °FSunny.7 mph53%30.03 "Hg10 mi
7:53 am39 °FPassing clouds.9 mph48%30.04 "Hg10 mi
6:53 am36 °FClear.9 mph52%30.01 "Hg10 mi
5:53 am39 °FClear.7 mph46%30.01 "Hg10 mi
4:53 am40 °FPassing clouds.7 mph45%30.01 "Hg10 mi
3:53 am39 °FClear.8 mph45%30.01 "Hg10 mi
2:53 am39 °FClear.9 mph43%30.02 "Hg10 mi
Weather by CustomWeather, © 2020

See weather overview

Advertising